Tracking 25656 objects as of 21-May-2022
HD Live streaming from Space Station
objects crossing your sky now

COSMOS 1275 DEB

Track COSMOS 1275 DEB now!
10-day predictions


NORAD ID: 12728
Int'l Code: 1981-053BV
Perigee: 941.9 km
Apogee: 1,029.1 km
Inclination: 82.8 °
Period: 104.7 minutes
Semi major axis: 7356 km
RCS: 0.1199 m2 (medium)
Launch date: June 4, 1981
Source: Commonwealth of Independent States (former USSR) (CIS)
Launch site: PLESETSK MISSILE AND SPACE COMPLEX (PKMTR)

Note: This is SATELLITE DEBRIS
aabbcc
Your satellite tracking list
Your tracking list is empty




NASA's NSSDC Master Catalog

Two Line Element Set (TLE):
1 12728U 81053BV  22140.75078260  .00000894  00000-0  89510-3 0  9998
2 12728  82.8058 127.4968 0059253  40.3152 134.8125 13.75931323 33455
Source of the keplerian elements: AFSPC